OBJECT AY, 61781

Orbit data source: Space-Track

You're viewing an Uncataloged Satellite

Recently launched and/or uncataloged satellites may have evolving metadata. Metadata may include but not limited to: Owner, Maufacturer, Bus, Motor, and Mission.

OBJECT AY, 61781 is a satellite in SSO that was launched on Mon, 04 Nov 2024 UTC via a SOYUZ-2-1B launch vehicle from the Vostochny Cosmodrome (VOSTO). Unknown objects in Earth's orbit typically refer to objects detected orbiting the Earth but have not yet been identified or cataloged. These objects could be anything from previously untracked satellites, spent rocket stages, debris from satellite collisions, or even natural meteoroids temporarily captured by Earth's gravity.

Loading next visibility...
Identifier
61781, 2024-199AY
Orbit
SSO
Last TLE update
9 hours ago
Origin
Flag of TBDAmur State University (TBD)
Manufacturer
AMGU/HARB
Mission
Operational Amateur Communications
Bus & Motor
CUBESAT 12U, Unknown motor
Mass
~15 kg wet, ~15 kg dry
Launch date (UTC)
2024-11-04 (8 months ago)
Launch vehicle
SOYUZ-2-1B
Launch site
Vostochny Cosmodrome (VOSTO)
Object type
Unknown
Shape & HBR
Box, 0.3 m
Radar Cross Section
0.035 m², Medium (>0.1 m² and < 1m²)

Expand to show TLE details & history

TLE from 9 hours ago
0 OBJECT AY
1 61781U 24199AY  25182.90404275  .00005344  00000-0  19398-3 0  9996
2 61781  97.3522  50.3667 0017407 116.2633 244.0398 15.28599963 80297
Epoch: 2025-07-01T21:41Z
TLE epoch observation values (Epoch: 2025-07-01T21:41:49.293Z)
Latitude
-0.00004°
Longitude
164.71851°
Altitude
488.344 km
Speed
7.618 km/s
True Right ascension
03h 21m 28s
True Declination
0° 00' 00"
Sunlit
Object was in daylight at epoch
Visualization orbit readout
Latitude
20.88315°
Longitude
-12.12378°
Altitude
474.125 km
Speed
7.635 km/s
Apparent Right ascension
12h 15m 27s
Apparent Declination
-23° 43' 18"
Sunlit
Object is in full shadow
Visualization observer readout
Local Sidereal Time
17:56:20
Azimuth
248.603° W
Elevation
-11.516°
Doppler factor
1
Orbital elements
Apogee altitude
488.881 km
Perigee altitude
465.016 km
Semi-major axis
6,855.086 km
Eccentricity
0.00174
Inclination
97.3522°
RAAN
50.3667°
Arg. of periapsis
116.2633°
True anomaly
Unknown
Mean anomaly
244.0398°
Eccentric anomaly
Unknown
Mean motion
3.82405 °/min
Orbital period
94.14 mins
BSTAR
0.00019398
Loading maneuver chart data...
Loading SW <> Apogee altitude chart data...
Loading historical data...
Loading historical data...
Loading historical data...
Loading historical data...
Loading historical data...
Loading historical data...
Loading historical data...

OBJECT AY Visibility forecast

Observer location: undefined°, undefined°

Span
Click to sort rows by Start time (UTC) header in descending order
Start Az.
Max El. time (UTC)
Max El. Az.
Max El.
End time (UTC)
End Az.
6 mins2025-07-02 15:06:38.835Z158.772° S2025-07-02 15:09:38.835Z34.703° NE42.31°2025-07-02 15:12:38.835Z352.936° N
5 mins2025-07-03 04:07:38.835Z6.911° NNE2025-07-03 04:09:38.835Z216.943° SW42.865°2025-07-03 04:12:38.835Z196.18° SSW
|